Tracking 20748 objects as of 4-Jun-2020
HD Live streaming from Space Station
objects crossing your sky now
Track the most recent launched group of Starlink satellites

METEOR 2-17 DEB

Track METEOR 2-17 DEB now!
10-day predictions


NORAD ID: 31397
Int'l Code: 1988-005S
Perigee: 922.0 km
Apogee: 932.7 km
Inclination: 82.5 °
Period: 103.4 minutes
Semi major axis: 7298 km
RCS: 0.0107 m2 (small)
Launch date: January 30, 1988
Source: Commonwealth of Independent States (former USSR) (CIS)
Launch site: PLESETSK MISSILE AND SPACE COMPLEX (PKMTR)

Note: This is SATELLITE DEBRIS
aabbcc
Your satellite tracking list
Your tracking list is empty




NASA's NSSDC Master Catalog

Two Line Element Set (TLE):
1 31397U 88005S   20156.02366962 +.00000735 +00000-0 +56047-3 0  9992
2 31397 082.5413 257.5208 0007323 092.3396 030.8585 13.92394618682544
Source of the keplerian elements: AFSPC